Location: La Comballaz
(46.3780°N, 7.0817°E)
Time: 19:14:16
(UTC+00:00)

N. Korean satellite - Pass Details

Date: 11 December 2021
Orbit: 446 x 492 km, 97.3° (Epoch: 18 January)

Event Time Altitude Azimuth Distance (km) Brightness Sun altitude
Rises 04:32:33 0° 17° (NNE) 2,460 10.3 -25.3°
Enters shadow 04:34:36 10° 23° (NNE) 1,600 9.3 -24.9°
Exits shadow 04:38:40 39° 140° (SE) 687 7.6 -24.2°
Drops below altitude 10° 04:41:12 10° 175° (S) 1,577 9.3 -23.8°
Sets 04:43:16 0° 181° (S) 2,448 10.2 -23.4°
